15min,AgWx,beryljct,423,18OCT2018:00:00:00,37.7,12.96,38.0,36.1,37.7,39.0,36.1,78,81,76,0.569,31.6,32.7,29.9,5.656,3.8,306,7.1,5.8,-0.00006,-0.00005,49.4,50.7,22,0,0,36.1,7.73,0.00,0.00
15min,AgWx,beryljct,423,18OCT2018:00:15:00,37.3,12.94,35.9,36.6,35.4,36.6,34.2,82,85,79,0.609,30.5,31.9,29.3,3.113,4.0,311,9.4,5.8,-0.00006,-0.00006,49.2,50.7,22,0,0,35.7,7.73,0.00,0.00
15min,AgWx,beryljct,423,18OCT2018:00:30:00,36.8,12.93,36.2,33.9,36.0,37.0,33.9,81,83,79,0.541,30.8,32.1,28.6,2.916,3.1,322,5.2,4.6,-0.00009,-0.00010,49.0,50.7,22,0,0,35.4,7.73,0.00,0.00
15min,AgWx,beryljct,423,18OCT2018:00:45:00,36.2,12.92,34.8,35.1,34.3,35.3,33.1,84,86,82,0.580,30.0,31.1,28.4,3.266,2.9,324,6.6,3.8,-0.00010,-0.00012,48.8,50.6,22,0,0,35.8,7.73,0.00,0.00
15min,AgWx,beryljct,423,18OCT2018:01:00:00,35.9,12.92,36.5,35.3,36.0,36.5,35.2,82,85,82,0.577,31.2,31.8,30.6,4.713,4.3,307,8.0,5.3,-0.00006,-0.00006,48.6,50.6,22,0,0,35.7,7.73,0.00,0.00
15min,AgWx,beryljct,423,18OCT2018:01:15:00,35.6,12.92,34.9,35.1,34.5,35.5,33.2,84,88,82,0.572,30.2,31.2,28.9,4.209,4.5,336,22,7.6,-0.00006,-0.00006,48.4,50.5,22,0,0,35.5,7.73,0.00,0.00
15min,AgWx,beryljct,423,18OCT2018:01:30:00,35.4,12.9,33.8,33.4,33.6,35.1,32.8,84,86,82,0.544,29.3,30.4,28.6,2.389,3.8,356,7.0,4.9,-0.00007,-0.00008,48.3,50.5,22,0,0,35.5,7.73,0.00,0.00
15min,AgWx,beryljct,423,18OCT2018:01:45:00,35.0,12.89,33.8,33.0,33.3,33.7,32.8,84,85,83,0.537,29.1,29.5,28.5,3.814,3.2,8.2,9.5,4.5,-0.00009,-0.00010,48.1,50.4,22,0,0,35.4,7.73,0.00,0.00
15min,AgWx,beryljct,423,18OCT2018:02:00:00,34.6,12.87,32.6,30.0,32.4,33.9,29.7,85,87,82,0.490,28.4,29.9,25.5,2.236,3.0,340,24,4.4,-0.00009,-0.00011,47.9,50.4,22,0,0,35.4,7.73,0.00,0.00
15min,AgWx,beryljct,423,18OCT2018:02:15:00,33.8,12.86,31.4,31.2,30.9,31.6,30.0,88,90,87,0.522,27.9,28.9,26.7,2.609,1.4,350,16,2.8,-0.00015,-0.00021,47.7,50.3,22,0,0,35.9,7.73,0.00,0.00
15min,AgWx,beryljct,423,18OCT2018:02:30:00,33.2,12.86,31.6,29.3,31.3,32.3,29.3,87,89,84,0.476,27.9,29.1,25.9,2.565,2.6,344,9.6,3.3,-0.00011,-0.00013,47.5,50.3,22,0,0,35.6,7.73,0.00,0.00
15min,AgWx,beryljct,423,18OCT2018:02:45:00,32.5,12.83,29.7,30.1,29.1,30.1,28.4,89,90,87,0.507,26.2,27.4,25.3,1.951,1.6,0.0,24,2.7,-0.00014,-0.00018,47.4,50.2,22,0,0,35.7,7.73,0.00,0.00
15min,AgWx,beryljct,423,18OCT2018:03:00:00,31.9,12.84,29.4,28.0,29.2,31.3,27.2,88,91,87,0.469,26.1,28.7,24.0,0.066,1.7,327,61,3.2,-0.00013,-0.00017,47.2,50.1,22,0,0,35.4,7.73,0.00,0.00
15min,AgWx,beryljct,423,18OCT2018:03:15:00,31.3,12.7,28.9,27.9,28.4,28.7,27.9,91,92,89,0.465,26.0,26.6,25.3,3.529,3.1,170,11,4.3,-0.00010,-0.00012,47.0,50.1,22,0,0,35.6,7.73,0.00,0.00
15min,AgWx,beryljct,423,18OCT2018:03:30:00,30.8,12.81,27.8,27.0,27.4,28.0,27.0,91,92,90,0.450,25.1,25.7,24.5,2.105,2.5,179,0.1,3.4,-0.00011,-0.00014,46.8,50.0,22,0,0,35.6,7.73,0.00,0.00
15min,AgWx,beryljct,423,18OCT2018:03:45:00,30.2,12.81,29.7,29.7,28.9,29.9,26.9,92,93,90,0.505,26.8,27.9,24.4,0.351,0.9,179,0.1,2.1,-0.00017,-0.00024,46.7,49.9,22,0,0,35.6,7.73,0.00,0.00
15min,AgWx,beryljct,423,18OCT2018:04:00:00,30.0,12.81,28.5,27.1,28.3,29.8,27.1,91,92,89,0.457,25.9,27.4,24.8,0,0.5,160,8.5,1.3,-0.00019,-0.00028,46.5,49.9,22,0,0,35.5,7.73,0.00,0.00
15min,AgWx,beryljct,423,18OCT2018:04:15:00,29.5,12.77,28.0,27.8,27.4,27.8,27.1,92,93,92,0.475,25.4,25.9,24.9,0,0.1,156,0.0,0.8,-0.00021,-0.00032,46.3,49.8,22,0,0,35.5,7.73,0.00,0.00
15min,AgWx,beryljct,423,18OCT2018:04:30:00,29.1,12.77,28.2,27.2,27.8,27.9,27.2,92,92,91,0.456,25.6,25.9,24.9,0.482,0.4,156,0.1,1.5,-0.00019,-0.00029,46.1,49.7,22,0,0,35.6,7.73,0.00,0.00
15min,AgWx,beryljct,423,18OCT2018:04:45:00,28.8,12.78,27.2,26.2,26.8,27.2,26.2,92,93,91,0.444,24.7,25.3,24.2,0.855,0.5,156,0.0,1.1,-0.00018,-0.00027,45.9,49.6,22,0,0,35.6,7.73,0.00,0.00
15min,AgWx,beryljct,423,18OCT2018:05:00:00,28.4,12.77,27.1,25.8,26.7,27.0,25.8,92,93,91,0.433,24.7,25.3,23.7,0,0.2,156,0.0,1.0,-0.00020,-0.00031,45.8,49.6,22,0,0,35.7,7.73,0.00,0.00
15min,AgWx,beryljct,423,18OCT2018:05:15:00,28.0,12.77,26.3,25.5,25.8,26.2,25.5,92,92,91,0.430,23.8,24.2,23.5,0,0.1,155,0.2,0.9,-0.00020,-0.00031,45.6,49.5,22,0,0,35.5,7.73,0.00,0.00
15min,AgWx,beryljct,423,18OCT2018:05:30:00,27.6,12.76,25.9,25.5,25.3,25.6,25.1,91,92,91,0.425,23.1,23.6,22.7,0.789,0.9,155,0.3,1.4,-0.00016,-0.00022,45.4,49.4,22,0,0,35.6,7.73,0.00,0.00
15min,AgWx,beryljct,423,18OCT2018:05:45:00,27.5,12.76,26.7,26.7,26.1,26.8,25.5,92,93,91,0.457,24.1,24.9,23.2,1.03,0.6,156,0.1,1.1,-0.00017,-0.00025,45.3,49.3,22,0,0,35.7,7.73,0.00,0.00
15min,AgWx,beryljct,423,18OCT2018:06:00:00,27.3,12.61,26.5,25.4,26.1,27.1,24.7,92,93,90,0.427,24.0,25.2,22.1,1.03,1.0,156,0.3,1.3,-0.00016,-0.00022,45.1,49.3,22,0,0,35.6,7.73,0.00,0.00
15min,AgWx,beryljct,423,18OCT2018:06:15:00,27.0,12.74,26.0,25.2,25.5,26.8,25.2,92,93,91,0.425,23.5,25.2,23.0,0.482,0.9,155,0.5,1.4,0.00002,0.00002,44.9,49.2,22,0,0,35.5,7.73,0.00,0.00
15min,AgWx,beryljct,423,18OCT2018:06:30:00,26.7,12.73,25.3,25.5,24.8,25.5,24.4,91,93,91,0.434,22.6,23.7,22.0,0.965,0.6,155,0.5,1.3,0.00001,0.00002,44.7,49.1,22,0,0,35.3,7.74,0.00,0.00
15min,AgWx,beryljct,423,18OCT2018:06:45:00,26.8,12.75,28.5,26.5,27.8,28.8,25.6,95,95,93,0.455,26.5,27.6,23.8,0,0.3,156,0.1,1.0,0.00002,0.00002,44.6,49.0,22,2,0,35.6,7.73,0.00,0.00
15min,AgWx,beryljct,423,18OCT2018:07:00:00,26.8,12.81,25.4,24.0,25.3,26.8,23.5,93,94,91,0.406,23.4,25.3,21.3,1.973,0.6,156,0.1,2.1,0.00007,0.00008,44.4,48.9,22,16,0,35.7,7.73,0.00,0.00
15min,AgWx,beryljct,423,18OCT2018:07:15:00,26.7,12.95,24.7,24.4,24.1,24.7,23.7,92,93,91,0.411,22.1,22.8,21.4,0.417,1.3,154,0.1,2.3,0.00020,0.00023,44.2,48.9,22,57,0,35.8,7.73,0.00,0.00
15min,AgWx,beryljct,423,18OCT2018:07:30:00,27.3,13.18,26.0,25.4,25.5,26.3,24.4,92,92,91,0.425,23.4,24.4,22.4,0,0.2,154,0.1,0.7,0.00031,0.00033,44.1,48.8,22,95,0,38.3,7.73,0.00,0.00
15min,AgWx,beryljct,423,18OCT2018:07:45:00,28.7,13.56,27.6,28.4,27.0,28.4,25.4,92,92,91,0.487,25.0,26.4,23.1,1.381,0.9,157,5.2,1.8,0.00043,0.00047,43.9,48.7,22,136,0,42.7,7.73,0.00,0.00
15min,AgWx,beryljct,423,18OCT2018:08:00:00,30.9,14.15,30.8,31.7,30.1,31.7,28.4,92,93,91,0.547,28.1,29.3,26.4,2.521,1.4,335,50,2.7,0.00060,0.00066,43.8,48.6,22,182,0,44.9,7.73,0.00,0.00
15min,AgWx,beryljct,423,18OCT2018:08:15:00,33.4,14.7,33.4,33.7,32.8,33.7,31.7,89,91,87,0.571,29.9,30.4,29.3,0,1.0,42,4.3,2.7,0.00082,0.00089,43.7,48.5,22,230,0,50.9,7.73,0.00,0.00
15min,AgWx,beryljct,423,18OCT2018:08:30:00,35.9,14.66,34.8,35.2,34.3,35.2,33.7,86,88,85,0.589,30.6,31.1,30.2,0.921,0.6,50,0.0,1.9,0.00105,0.00112,43.6,48.5,22,278,0,57.6,7.73,0.00,0.00
15min,AgWx,beryljct,423,18OCT2018:08:45:00,38.4,14.63,36.3,36.6,35.9,36.6,35.1,84,86,83,0.612,31.6,32.2,31.0,1.666,1.5,87,12,2.6,0.00124,0.00135,43.5,48.4,22,325,0,59.6,7.72,0.00,0.00
15min,AgWx,beryljct,423,18OCT2018:09:00:00,40.6,14.68,37.8,37.9,37.4,38.0,36.5,82,84,80,0.624,32.2,32.8,31.8,3.42,1.1,114,11,3.4,0.00148,0.00160,43.5,48.3,22,370,0,63.4,7.72,0.00,0.00
15min,AgWx,beryljct,423,18OCT2018:09:15:00,42.8,14.56,39.2,39.6,38.8,39.8,37.9,79,81,75,0.624,32.7,33.4,32.1,0.57,1.4,120,16,4.0,0.00170,0.00185,43.5,48.2,22,414,0,65.1,7.73,0.00,0.00
15min,AgWx,beryljct,423,18OCT2018:09:30:00,45.1,14.56,40.4,40.7,40.1,41.0,39.5,75,77,72,0.631,32.8,33.4,32.4,0.833,0.8,87,3.2,2.0,0.00195,0.00211,43.5,48.2,22,456,0,67.4,7.72,0.00,0.00
15min,AgWx,beryljct,423,18OCT2018:09:45:00,47.5,14.51,41.6,41.8,41.4,42.0,40.7,71,73,69,0.629,32.6,33.4,32.2,1.074,0.8,86,0.4,2.4,0.00218,0.00236,43.6,48.1,22,496,0,70.2,7.72,0.00,0.00
15min,AgWx,beryljct,423,18OCT2018:10:00:00,49.8,14.46,43.3,44.3,42.9,44.3,41.9,68,71,66,0.657,33.2,34.1,32.5,0,0.6,74,11,2.2,0.00242,0.00260,43.8,48.0,22,533,0,71.9,7.72,0.00,0.00
15min,AgWx,beryljct,423,18OCT2018:10:15:00,51.6,14.44,44.7,45.4,44.4,45.4,43.7,65,67,61,0.626,33.3,34.4,32.6,0,0.9,96,16,3.1,0.00263,0.00285,44.0,48.0,22,567,0,74.1,7.72,0.00,0.00
15min,AgWx,beryljct,423,18OCT2018:10:30:00,53.2,14.02,46.4,46.8,46.1,47.8,45.2,61,63,57,0.646,33.2,33.8,32.5,4.187,1.1,130,28,4.2,0.00284,0.00310,44.2,47.9,22,596,0,76.8,7.72,0.00,0.00
15min,AgWx,beryljct,423,18OCT2018:10:45:00,54.1,14.05,46.8,47.1,46.6,47.2,45.9,58,61,55,0.620,32.5,33.9,31.6,0.395,2.0,94,19,4.3,0.00299,0.00332,44.5,47.9,22,625,0,73.9,7.72,0.00,0.00
15min,AgWx,beryljct,423,18OCT2018:11:00:00,55.3,13.98,48.2,48.4,48.0,48.6,47.2,56,58,54,0.632,32.9,33.7,32.2,1.491,0.7,85,14,2.7,0.00319,0.00345,44.9,47.8,22,648,0,78.7,7.72,0.00,0.00
15min,AgWx,beryljct,423,18OCT2018:11:15:00,56.8,13.94,49.5,50.3,49.3,50.3,48.4,54,56,52,0.662,33.5,34.5,32.5,0.855,1.3,141,27,3.7,0.00334,0.00366,45.3,47.8,22,669,0,79.8,7.71,0.00,0.00
15min,AgWx,beryljct,423,18OCT2018:11:30:00,58.1,13.94,50.8,50.8,50.7,51.4,50.1,53,56,50,0.650,34.0,35.4,32.9,2.631,1.4,93,48,4.1,0.00348,0.00382,45.7,47.8,22,684,0,78.5,7.71,0.00,0.00
15min,AgWx,beryljct,423,18OCT2018:11:45:00,59.0,13.91,51.4,52.2,51.2,52.2,50.4,51,54,48,0.637,33.8,34.9,33.0,0,2.0,133,24,4.2,0.00356,0.00396,46.2,47.8,22,699,0,78.2,7.71,0.00,0.00
15min,AgWx,beryljct,423,18OCT2018:12:00:00,59.7,13.9,52.7,52.9,52.6,53.5,52.0,48,50,46,0.628,33.3,34.7,32.3,4.143,1.8,68,40,4.2,0.00369,0.00409,46.8,47.9,22,707,0,78.5,7.70,0.00,0.00
15min,AgWx,beryljct,423,18OCT2018:12:15:00,60.3,13.88,53.0,53.4,52.9,53.6,52.4,46,47,44,0.627,32.5,33.9,31.7,4.56,2.9,90,27,5.8,0.00374,0.00425,47.3,47.9,22,712,0,75.5,7.70,0.00,0.00
15min,AgWx,beryljct,423,18OCT2018:12:30:00,60.7,13.94,54.0,54.9,53.8,54.9,53.2,43,46,40,0.606,31.6,33.2,30.4,2.653,2.3,71,33,5.1,0.00379,0.00428,47.9,48.0,22,711,0,76.2,7.70,0.00,0.00
15min,AgWx,beryljct,423,18OCT2018:12:45:00,61.5,13.82,54.5,55.1,54.5,55.3,53.9,42,44,40,0.597,31.7,33.0,31.0,1.008,2.1,68,65,5.5,0.00380,0.00427,48.5,48.1,22,706,0,76.7,7.70,0.00,0.00
15min,AgWx,beryljct,423,18OCT2018:13:00:00,62.4,13.91,55.6,55.8,55.5,56.5,54.8,41,44,38,0.602,32.0,34.3,31.0,4.713,2.9,102,52,6.3,0.00384,0.00439,49.2,48.2,22,700,0,75.9,7.69,0.00,0.00
15min,AgWx,beryljct,423,18OCT2018:13:15:00,63.0,13.79,56.2,57.3,56.0,57.3,55.0,40,43,38,0.647,32.3,34.3,31.2,2.565,3.0,68,51,5.8,0.00364,0.00420,49.8,48.3,22,661,0,74.0,7.69,0.00,0.00
15min,AgWx,beryljct,423,18OCT2018:13:30:00,63.6,13.75,56.6,56.3,56.6,57.3,56.0,39,42,37,0.587,32.2,34.0,30.6,4.538,5.3,65,29,10.1,0.00384,0.00462,50.4,48.4,22,673,0,70.7,7.69,0.00,0.00
15min,AgWx,beryljct,423,18OCT2018:13:45:00,63.9,13.75,56.8,56.2,56.8,57.7,56.2,39,41,37,0.591,31.9,34.1,30.7,1.644,4.3,58,38,8.4,0.00375,0.00445,51.0,48.6,22,662,0,70.1,7.68,0.00,0.00
15min,AgWx,beryljct,423,18OCT2018:14:00:00,64.3,13.72,57.1,57.3,57.0,57.9,56.2,38,40,36,0.607,31.5,32.8,30.4,4.012,4.2,50,34,10.2,0.00359,0.00428,51.6,48.7,22,632,0,70.0,7.69,0.00,0.00
15min,AgWx,beryljct,423,18OCT2018:14:15:00,64.7,13.74,57.9,58.0,57.9,59.0,56.8,37,40,34,0.564,31.6,34.0,30.1,8.35,4.6,68,34,13.0,0.00349,0.00422,52.1,48.9,22,602,0,69.7,7.68,0.00,0.00
15min,AgWx,beryljct,423,18OCT2018:14:30:00,64.9,13.73,58.5,58.4,58.4,58.8,57.7,35,37,34,0.602,31.0,32.5,29.7,8.51,8.4,50,17,13.1,0.00360,0.00468,52.5,49.1,22,572,0,64.8,7.68,0.00,0.00
15min,AgWx,beryljct,423,18OCT2018:14:45:00,64.9,13.74,58.5,59.1,58.4,59.1,57.9,34,36,32,0.607,30.0,32.1,28.8,11.82,7.0,3.9,26,11.8,0.00342,0.00439,52.8,49.2,22,551,0,64.5,7.68,0.00,0.00
15min,AgWx,beryljct,423,18OCT2018:15:00:00,64.9,13.73,58.3,58.2,58.3,59.2,57.6,34,35,32,0.571,29.8,31.9,28.1,3.42,5.8,52,23,11.7,0.00311,0.00397,53.0,49.4,22,507,0,63.8,7.68,0.00,0.00
15min,AgWx,beryljct,423,18OCT2018:15:15:00,65.0,13.79,59.0,58.8,58.9,59.2,58.4,33,35,32,0.582,30.1,31.5,28.9,5.217,8.7,43,11,13.2,0.00316,0.00427,53.2,49.6,22,472,0,62.8,7.68,0.00,0.00
15min,AgWx,beryljct,423,18OCT2018:15:30:00,65.0,13.75,58.7,58.6,58.7,59.2,58.2,33,34,32,0.552,29.5,30.7,28.4,6.094,5.9,47,23,11.5,0.00275,0.00361,53.3,49.8,22,438,0,62.9,7.68,0.00,0.00
15min,AgWx,beryljct,423,18OCT2018:15:45:00,65.1,13.77,59.0,59.2,58.9,59.6,58.4,33,35,31,0.543,29.8,31.7,28.3,3.968,4.5,34,27,9.5,0.00237,0.00306,53.5,49.9,22,394,0,63.5,7.68,0.00,0.00
15min,AgWx,beryljct,423,18OCT2018:16:00:00,65.3,13.7,58.8,58.6,58.8,59.7,58.4,33,35,31,0.562,29.7,31.3,28.2,7.717,6.6,33,24,12.7,0.00233,0.00322,53.6,50.1,22,348,0,62.4,7.68,0.00,0.00
15min,AgWx,beryljct,423,18OCT2018:16:15:00,64.9,13.72,58.6,58.6,58.4,58.9,58.0,34,36,33,0.586,30.5,31.8,29.3,7.147,5.8,66,25,10.3,0.00197,0.00275,53.8,50.2,22,303,0,60.7,7.68,0.00,0.00
15min,AgWx,beryljct,423,18OCT2018:16:30:00,64.3,13.73,58.8,58.6,58.6,59.0,58.3,34,37,32,0.557,30.3,32.6,28.9,4.801,5.6,44,29,10.2,0.00171,0.00246,53.9,50.4,22,257,0,61.0,7.68,0.00,0.00
15min,AgWx,beryljct,423,18OCT2018:16:45:00,63.8,13.76,59.1,58.9,58.9,59.3,58.5,32,34,29,0.538,29.1,30.7,26.9,9.38,7.9,45,16,14.7,0.00176,0.00274,54.1,50.5,22,214,0,60.1,7.68,0.00,0.00
15min,AgWx,beryljct,423,18OCT2018:17:00:00,63.0,13.77,58.7,58.2,58.6,58.9,58.2,30,31,30,0.498,27.6,28.3,26.8,9.32,11.1,47,7.0,16.5,0.00099,0.00120,54.2,50.7,22,166,0,59.5,7.69,0.00,0.00
15min,AgWx,beryljct,423,18OCT2018:17:15:00,62.0,13.81,58.1,57.6,57.9,58.2,57.6,30,32,29,0.464,26.8,28.0,25.3,12.85,9.4,46,8.8,13.5,0.00085,0.00105,54.3,50.8,22,122,0,58.8,7.69,0.00,0.00
15min,AgWx,beryljct,423,18OCT2018:17:30:00,60.7,13.85,57.1,56.4,57.1,57.6,56.4,30,32,28,0.495,26.1,27.3,25.1,7.497,9.8,42,6.5,14.3,0.00079,0.00098,54.4,50.9,22,81,0,56.5,7.69,0.00,0.00
15min,AgWx,beryljct,423,18OCT2018:17:45:00,58.9,13.28,55.6,54.8,55.6,56.4,54.8,34,35,32,0.505,27.4,28.0,26.8,6.072,6.7,44,10,9.7,0.00047,0.00062,54.5,51.0,22,17,0,54.0,7.69,0.00,0.00
15min,AgWx,beryljct,423,18OCT2018:18:00:00,56.8,13.21,53.9,52.8,53.9,54.8,52.8,36,38,34,0.523,27.4,28.2,26.7,5.261,6.7,45,6.1,10.6,0.00041,0.00055,54.5,51.1,22,6,0,51.9,7.69,0.00,0.00
15min,AgWx,beryljct,423,18OCT2018:18:15:00,54.6,13.18,51.7,50.7,51.7,52.8,50.7,40,42,38,0.530,28.4,28.9,28.2,2.28,3.2,41,5.6,5.0,0.00009,0.00016,54.4,51.3,22,1,0,48.8,7.69,0.00,0.00
15min,AgWx,beryljct,423,18OCT2018:18:30:00,52.4,13.16,50.4,50.2,50.2,50.7,50.1,43,44,42,0.540,28.7,29.0,28.5,1.513,2.1,34,2.9,2.9,-0.00004,-0.00002,54.3,51.4,22,0,0,46.7,7.70,0.00,0.00
15min,AgWx,beryljct,423,18OCT2018:18:45:00,50.6,13.14,48.7,47.9,48.7,50.2,47.9,47,48,44,0.540,29.1,29.3,28.9,2.806,1.1,2.6,23,2.8,-0.00019,-0.00025,54.2,51.5,22,0,0,44.9,7.70,0.00,0.00
15min,AgWx,beryljct,423,18OCT2018:19:00:00,48.9,13.14,47.8,47.8,47.5,48.2,46.2,48,51,47,0.535,28.9,29.2,28.7,2.17,2.6,336,22,3.6,-0.00000,0.00003,54.0,51.6,22,0,0,44.3,7.70,0.00,0.00
15min,AgWx,beryljct,423,18OCT2018:19:15:00,47.7,13.13,47.3,46.6,47.1,47.9,46.5,48,49,47,0.528,28.6,28.8,28.3,1.995,2.1,8.3,4.8,3.1,-0.00006,-0.00005,53.9,51.6,22,0,0,43.9,7.70,0.00,0.00
15min,AgWx,beryljct,423,18OCT2018:19:30:00,46.7,13.11,45.5,44.2,45.4,46.6,44.2,51,53,49,0.520,28.2,28.5,28.0,2.083,1.9,359,7.5,2.7,-0.00008,-0.00009,53.7,51.7,22,0,0,42.5,7.70,0.00,0.00
15min,AgWx,beryljct,423,18OCT2018:19:45:00,45.6,13.09,44.8,44.7,44.4,44.7,44.3,52,53,51,0.518,28.0,28.1,27.8,1.074,1.6,349,1.1,2.5,-0.00011,-0.00013,53.5,51.8,22,0,0,41.1,7.71,0.00,0.00
15min,AgWx,beryljct,423,18OCT2018:20:00:00,44.9,13.09,45.0,44.5,44.6,44.8,44.3,52,53,51,0.521,28.1,28.3,27.9,3.442,2.1,332,14,3.8,-0.00006,-0.00006,53.3,51.8,22,0,0,41.3,7.71,0.00,0.00
15min,AgWx,beryljct,423,18OCT2018:20:15:00,44.2,13.07,44.2,43.2,44.1,45.0,42.9,53,56,51,0.523,28.1,28.3,27.9,4.209,4.0,320,4.0,5.3,0.00007,0.00012,53.1,51.9,22,0,0,41.5,7.71,0.00,0.00
15min,AgWx,beryljct,423,18OCT2018:20:30:00,43.6,13.07,42.2,40.3,42.2,43.5,40.3,57,62,55,0.529,28.2,28.6,27.9,5.722,4.3,323,7.3,6.0,0.00006,0.00010,52.8,51.9,22,0,0,40.4,7.71,0.00,0.00
15min,AgWx,beryljct,423,18OCT2018:20:45:00,42.6,13.07,40.0,40.0,39.8,40.4,38.9,64,66,62,0.529,28.5,28.8,28.3,4.845,4.8,312,7.6,6.4,0.00004,0.00008,52.6,51.9,22,0,0,38.5,7.71,0.00,0.00
15min,AgWx,beryljct,423,18OCT2018:21:00:00,41.8,13.05,39.4,38.0,39.2,40.3,38.0,65,69,63,0.533,28.5,28.7,28.3,4.538,5.0,317,2.6,5.8,0.00005,0.00008,52.4,51.9,22,0,0,37.9,7.71,0.00,0.00
15min,AgWx,beryljct,423,18OCT2018:21:15:00,40.8,13.05,39.1,39.3,38.6,39.3,37.7,67,69,65,0.528,28.5,28.8,28.2,3.551,4.2,320,4.6,5.4,0.00001,0.00003,52.2,51.9,22,0,0,37.0,7.72,0.00,0.00
15min,AgWx,beryljct,423,18OCT2018:21:30:00,40.0,13.05,38.4,37.9,38.2,39.6,36.6,67,71,64,0.531,28.3,28.6,27.6,4.384,3.5,318,3.2,4.5,-0.00003,-0.00001,51.9,51.9,22,0,0,36.5,7.72,0.00,0.00
15min,AgWx,beryljct,423,18OCT2018:21:45:00,39.2,13.02,38.5,38.8,38.0,38.9,37.3,68,70,65,0.522,28.2,28.5,28.0,0.614,2.4,324,2.4,4.6,-0.00008,-0.00008,51.7,51.9,22,0,0,35.8,7.72,0.00,0.00
15min,AgWx,beryljct,423,18OCT2018:22:00:00,38.7,13.01,39.7,40.0,39.2,40.0,38.7,65,66,63,0.527,28.3,28.6,28.0,0,0.1,320,3.9,0.8,-0.00027,-0.00042,51.5,51.9,22,0,0,35.8,7.72,0.00,0.00
15min,AgWx,beryljct,423,18OCT2018:22:15:00,38.4,13.02,41.0,40.8,40.4,40.8,40.0,62,63,61,0.528,28.3,28.4,27.9,2.214,1.0,317,4.8,2.6,-0.00019,-0.00026,51.3,51.9,22,0,0,35.9,7.72,0.00,0.00
15min,AgWx,beryljct,423,18OCT2018:22:30:00,38.6,13,41.5,41.0,41.1,41.5,40.7,60,61,60,0.531,28.5,28.6,28.3,2.346,2.4,321,9.6,3.0,-0.00007,-0.00007,51.0,51.8,22,0,0,37.7,7.72,0.00,0.00
15min,AgWx,beryljct,423,18OCT2018:22:45:00,38.8,12.99,41.1,40.3,40.8,41.2,40.0,62,63,61,0.528,28.6,29.0,28.3,3.266,2.7,322,8.6,3.7,-0.00005,-0.00004,50.8,51.8,22,0,0,38.0,7.72,0.00,0.00
15min,AgWx,beryljct,423,18OCT2018:23:00:00,38.9,12.99,41.0,39.9,40.7,41.2,39.9,62,63,61,0.521,28.8,29.0,28.1,2.017,2.9,332,4.8,3.7,-0.00003,-0.00002,50.6,51.8,22,0,0,38.1,7.72,0.00,0.00
15min,AgWx,beryljct,423,18OCT2018:23:15:00,38.8,12.99,40.8,41.0,40.3,41.0,39.5,63,65,62,0.543,28.8,29.1,28.2,2.214,2.1,338,17,2.5,-0.00009,-0.00011,50.4,51.7,22,0,0,37.6,7.72,0.00,0.00
15min,AgWx,beryljct,423,18OCT2018:23:30:00,38.8,12.98,41.7,41.0,41.3,41.6,41.0,62,62,61,0.540,29.2,29.4,29.0,2.346,2.4,333,13,2.8,-0.00007,-0.00007,50.2,51.7,22,0,0,38.1,7.72,0.00,0.00
15min,AgWx,bigpiney,439,18OCT2018:00:00:00,28.0,12.65,25.8,25.4,25.7,27.2,24.2,78,81,76,0.368,19.9,20.9,18.6,1.666,1.6,254,43,2.6,-0.00012,-0.00016,38.7,41.7,30,0,0,0.0,.,0.00,0.00
15min,AgWx,bigpiney,439,18OCT2018:00:15:00,27.4,12.65,26.6,27.0,26.1,27.0,24.6,79,81,77,0.384,20.4,21.0,18.5,1.425,1.1,270,59,2.3,-0.00015,-0.00020,38.7,41.7,30,0,0,0.0,.,0.00,0.00
15min,AgWx,bigpiney,439,18OCT2018:00:30:00,27.2,12.63,25.6,24.7,25.5,27.0,24.3,79,82,77,0.371,19.9,20.8,18.7,2.916,1.5,118,39,3.3,-0.00013,-0.00017,38.6,41.7,30,0,0,0.0,.,0.00,0.00
15min,AgWx,bigpiney,439,18OCT2018:00:45:00,27.0,12.63,24.4,21.6,24.4,27.2,21.6,81,84,76,0.333,19.4,21.7,17.4,5.305,3.9,176,6.2,5.3,-0.00005,-0.00006,38.6,41.7,30,0,0,0.0,.,0.00,0.00
15min,AgWx,bigpiney,439,18OCT2018:01:00:00,26.6,12.6,21.3,19.6,21.2,21.8,19.6,85,86,84,0.310,17.4,18.3,15.8,3.266,4.4,186,8.8,5.8,-0.00005,-0.00005,38.6,41.7,30,0,0,0.0,.,0.00,0.00
15min,AgWx,bigpiney,439,18OCT2018:01:15:00,26.1,12.61,22.3,22.2,21.7,23.0,19.5,86,88,83,0.337,18.1,19.7,15.7,4.516,4.0,260,37,6.2,-0.00006,-0.00006,38.6,41.7,30,0,0,0.0,.,0.00,0.00
15min,AgWx,bigpiney,439,18OCT2018:01:30:00,25.7,12.59,23.1,22.1,22.7,23.3,21.9,83,85,82,0.335,18.3,19.5,17.5,0.658,3.3,318,15,4.9,-0.00007,-0.00008,38.6,41.7,30,0,0,0.0,.,0.00,0.00
15min,AgWx,bigpiney,439,18OCT2018:01:45:00,25.4,12.57,22.5,22.7,22.1,22.7,21.8,84,85,82,0.355,18.0,18.9,17.3,0.965,0.8,246,33,2.0,-0.00015,-0.00021,38.6,41.7,30,0,0,0.0,.,0.00,0.00
15min,AgWx,bigpiney,439,18OCT2018:02:00:00,25.1,12.58,24.6,24.8,24.0,24.9,22.8,84,85,82,0.372,19.7,20.4,19.0,1.14,0.7,178,5.4,2.0,-0.00017,-0.00024,38.6,41.7,30,0,0,0.0,.,0.00,0.00
15min,AgWx,bigpiney,439,18OCT2018:02:15:00,24.9,12.57,21.7,18.7,21.9,24.5,18.6,83,86,80,0.299,17.6,20.0,14.4,0,1.7,292,42,3.7,-0.00011,-0.00015,38.5,41.7,30,0,0,0.0,.,0.00,0.00
15min,AgWx,bigpiney,439,18OCT2018:02:30:00,24.4,12.56,21.1,20.6,20.6,22.5,18.6,87,90,83,0.333,17.4,19.4,15.0,3.464,2.0,252,28,4.3,-0.00011,-0.00013,38.5,41.7,30,0,0,0.0,.,0.00,0.00
15min,AgWx,bigpiney,439,18OCT2018:02:45:00,23.9,12.55,24.2,24.3,23.4,24.5,20.6,85,89,83,0.370,19.6,20.3,17.3,1.841,2.4,270,24,3.6,-0.00010,-0.00012,38.5,41.7,30,0,0,0.0,.,0.00,0.00
15min,AgWx,bigpiney,439,18OCT2018:03:00:00,23.7,12.54,23.3,21.9,23.2,24.4,21.9,83,85,82,0.342,18.9,20.0,17.4,5.722,5.0,307,13,6.8,-0.00004,-0.00004,38.5,41.7,30,0,0,0.0,.,0.00,0.00
15min,AgWx,bigpiney,439,18OCT2018:03:15:00,23.9,12.53,21.5,19.8,21.3,22.0,19.8,85,86,85,0.313,17.7,18.2,16.1,3.705,3.0,278,61,5.7,-0.00008,-0.00009,38.5,41.7,30,0,0,0.0,.,0.00,0.00
15min,AgWx,bigpiney,439,18OCT2018:03:30:00,23.7,12.5,20.8,21.2,20.3,21.5,19.2,87,89,84,0.345,17.0,18.7,15.7,3.157,4.0,210,12,4.7,-0.00006,-0.00006,38.5,41.7,30,0,0,0.0,.,0.00,0.00
15min,AgWx,bigpiney,439,18OCT2018:03:45:00,23.3,12.52,22.3,20.7,22.0,24.9,20.3,84,90,79,0.327,18.0,21.0,16.2,5.283,4.0,229,10,6.1,-0.00006,-0.00006,38.5,41.7,30,0,0,0.0,.,0.00,0.00
15min,AgWx,bigpiney,439,18OCT2018:04:00:00,22.9,12.49,22.9,21.5,22.5,25.2,20.9,83,88,76,0.334,18.2,21.6,15.4,5.086,4.2,214,14,6.3,-0.00005,-0.00005,38.4,41.6,30,0,0,0.0,.,0.00,0.00
15min,AgWx,bigpiney,439,18OCT2018:04:15:00,22.6,12.49,20.8,21.3,20.4,21.5,19.3,85,87,83,0.330,16.5,17.7,15.3,3.069,4.7,240,14,5.7,-0.00004,-0.00004,38.4,41.7,30,0,0,0.0,.,0.00,0.00
15min,AgWx,bigpiney,439,18OCT2018:04:30:00,22.6,12.47,19.6,19.0,19.5,21.3,18.8,84,86,83,0.304,15.4,17.2,14.6,3.047,2.3,237,26,3.2,-0.00009,-0.00011,38.4,41.7,30,0,0,0.0,.,0.00,0.00
15min,AgWx,bigpiney,439,18OCT2018:04:45:00,22.5,12.44,20.3,20.5,19.6,20.5,18.8,87,88,85,0.333,16.3,17.5,15.1,1.929,2.6,326,14,4.2,-0.00009,-0.00010,38.4,41.7,30,0,0,0.0,.,0.00,0.00
15min,AgWx,bigpiney,439,18OCT2018:05:00:00,22.3,12.45,20.9,19.9,20.5,21.6,19.6,87,88,83,0.324,17.1,18.2,15.6,0.855,1.4,318,26,2.5,-0.00012,-0.00016,38.4,41.7,30,0,0,0.0,.,0.00,0.00
15min,AgWx,bigpiney,439,18OCT2018:05:15:00,22.2,12.43,21.2,21.2,20.7,21.3,19.4,87,89,86,0.338,17.6,18.3,16.0,1.513,0.8,220,46,3.2,-0.00015,-0.00021,38.4,41.6,30,0,0,0.0,.,0.00,0.00
15min,AgWx,bigpiney,439,18OCT2018:05:30:00,21.9,12.42,20.0,19.4,19.8,21.2,18.9,86,88,83,0.313,16.4,17.9,15.3,4.406,4.2,201,6.9,5.3,-0.00005,-0.00006,38.4,41.6,30,0,0,0.0,.,0.00,0.00
15min,AgWx,bigpiney,439,18OCT2018:05:45:00,21.4,12.43,19.7,18.5,19.4,20.5,18.3,86,89,85,0.301,16.0,17.7,14.5,5.086,4.6,213,8.2,5.2,-0.00005,-0.00005,38.3,41.7,30,0,0,0.0,.,0.00,0.00
15min,AgWx,bigpiney,439,18OCT2018:06:00:00,21.0,12.42,20.8,19.9,20.3,21.6,18.5,86,90,83,0.309,16.7,18.9,15.2,4.231,4.0,233,22,5.4,-0.00006,-0.00006,38.3,41.7,30,0,0,0.0,.,0.00,0.00
15min,AgWx,bigpiney,439,18OCT2018:06:15:00,20.9,12.41,19.4,19.1,19.1,19.8,18.8,86,88,83,0.307,15.6,16.5,15.0,4.582,3.6,247,38,5.2,-0.00006,-0.00007,38.3,41.6,30,0,0,0.0,.,0.00,0.00
15min,AgWx,bigpiney,439,18OCT2018:06:30:00,20.8,12.39,17.1,17.2,16.9,19.0,15.6,86,89,84,0.290,13.5,15.5,11.9,3.529,4.1,211,17,5.4,-0.00005,-0.00005,38.3,41.6,30,1,0,0.0,.,0.00,0.00
15min,AgWx,bigpiney,439,18OCT2018:06:45:00,20.6,12.44,17.5,17.0,17.1,18.2,16.0,88,89,84,0.287,14.0,15.3,12.1,2.324,2.6,267,49,4.1,-0.00007,-0.00009,38.3,41.7,30,6,0,0.0,.,0.00,0.00
15min,AgWx,bigpiney,439,18OCT2018:07:00:00,20.4,12.57,16.8,16.4,16.5,17.1,15.9,88,89,87,0.278,13.5,14.3,12.8,0,1.9,15,11,3.6,-0.00020,-0.00019,38.3,41.6,30,19,0,0.0,.,0.00,0.00
15min,AgWx,bigpiney,439,18OCT2018:07:15:00,20.4,13.05,16.7,16.8,16.3,16.8,15.8,88,89,87,0.283,13.3,14.0,12.7,0,0.3,101,48,1.8,-0.00007,-0.00007,38.3,41.7,30,73,0,0.0,.,0.00,0.00
15min,AgWx,bigpiney,439,18OCT2018:07:30:00,21.0,13.54,18.8,19.6,18.1,19.6,16.8,88,88,87,0.320,15.1,16.5,13.7,0,0.3,298,5.7,1.7,0.00005,0.00006,38.2,41.6,30,111,0,0.0,.,0.00,0.00
15min,AgWx,bigpiney,439,18OCT2018:07:45:00,22.6,14.82,22.0,22.4,21.3,22.4,19.6,86,88,85,0.351,17.9,19.1,16.5,0.658,0.1,284,1.0,0.8,0.00020,0.00021,38.2,41.7,30,152,0,0.0,.,0.00,0.00
15min,AgWx,bigpiney,439,18OCT2018:08:00:00,24.9,14.97,23.8,23.9,23.3,23.9,22.4,86,87,85,0.370,19.6,20.3,18.7,1.666,0.6,328,17,2.0,0.00037,0.00040,38.2,41.6,30,194,0,0.0,.,0.00,0.00
15min,AgWx,bigpiney,439,18OCT2018:08:15:00,27.5,14.83,25.1,25.7,24.6,25.7,23.7,84,86,82,0.390,20.5,21.2,19.7,0.592,0.6,350,25,1.9,0.00055,0.00059,38.2,41.7,30,238,0,0.0,.,0.00,0.00
15min,AgWx,bigpiney,439,18OCT2018:08:30:00,30.3,14.79,27.9,28.6,27.3,28.7,25.7,81,83,78,0.415,22.1,23.2,21.1,0,0.1,337,11,1.1,0.00076,0.00081,38.2,41.6,30,282,0,0.0,.,0.00,0.00